Weather in Krupets

Russia / Kursk Oblast     51°37′23″N   34°20′47″E
temp.,
°C
wind,
m/s
gust,
m/s
humid.,
%
clouds,
%
prec.,
mm/h
press.,
hPa
HPBL,
m
9 march, tue
tue900:00−7nnw369396 0.0 1011135
03:00−10nw489381 0.0 1013191
06:00−12nw479629 0.0 1015177
09:00−11nw479451 0.0 1017251
12:00−8nnw578887 0.0 1019553
15:00−7nw468393 0.1 1020853
18:00−8nw378787 0.1 1021231
21:00−11nw369143 0.1 1024121
10 march, wed
wed1000:00−12nw33930 0.0 102564
03:00−13nnw23920 0.0 102637
06:00−14nnw229218 0.0 102721
09:00−12nw118756 0.0 102872
12:00−8w127774 0.0 1027369
15:00−6w227340 0.0 1027576
18:00−8wsw118550 0.0 102621
21:00−9sw228770 0.0 102721
11 march, thu
thu1100:00−11wsw228927 0.0 102821
03:00−11nnw128949 0.0 102921
06:00−12ene229366 0.0 102921
09:00−10e349668 0.0 1031163
12:00−8ese338996 0.1 1031379
15:00−6e338798 0.2 1031513
18:00−7e3593100 0.1 1030310
21:00−10ese489599 0.1 1031208
12 march, fri
fri1200:00−11ese488647 0.0 1031159
03:00−11se488424 0.0 1031158
06:00−12se49820 0.0 1031188
09:00−10sse6117415 0.0 1030388
12:00−7sse6107183 0.0 1029548
15:00−5sse7116490 0.0 1028775
18:00−6sse51267100 0.0 1026610
21:00−6s71562100 0.0 1026593
13 march, sat
sat1300:00−5s71663100 0.1 1025780
03:00−6s91783100 0.3 1024782
06:00−5s91594100 0.7 1023735
09:00−5s81394100 1.9 1024613
12:00−3s81394100 1.1 1024667
15:00−1s71196100 2.1 1023647
18:00−1ssw61197100 0.8 1022627
21:00−1s71296100 1.4 1021517